Location: Chiroubles
(46.1812°N, 4.6660°E)
Time: 15:59:22
(UTC+00:00)

Transit 4A - Pass Details

Date: 04 December 2020
Orbit: 864 x 980 km, 66.8° (Epoch: 26 January)

Event Time Altitude Azimuth Distance (km) Brightness Sun altitude
Rises 06:49:25 0° 217° (SW) 3,625 10.9 -3.5°
Reaches altitude 10° 06:51:57 10° 219° (SW) 2,695 10.2 -3.1°
Maximum altitude 06:58:16 76° 305° (NW) 1,010 8.0 -2.1°
Drops below altitude 10° 07:04:43 10° 31° (NNE) 2,741 10.4 -1.2°
Sets 07:07:19 0° 33° (NNE) 3,691 11.0 -0.8°
